Regional Weather Roundup
Issued by NWS Charleston, SC

Home | Current Version | Previous Version | Text Only | Print | Product List | Glossary On
Versions: 1 2 3 4 5 6 7 8 9 10 11 12 13 14 15 16 17 18 19 20 21 22 23 24 25 26 27 28 29 30 31 32 33 34 35 36 37 38 39 40 41 42 43 44 45 46 47 48 49 50
000
ASUS42 KCHS 272211
RWRCHS

REGIONAL WEATHER ROUNDUP
NATIONAL WEATHER SERVICE CHARLESTON SC
500 PM EST FRI FEB 27 2015

NOTE: "FAIR" INDICATES FEW OR NO CLOUDS BELOW 12,000 FEET WITH NO
SIGNIFICANT WEATHER AND/OR OBSTRUCTIONS TO VISIBILITY.

NOT ALL STATIONS ARE QUALITY CONTROLLED BY THE NATIONAL
WEATHER SERVICE. USE DATA WITH CAUTION...ESPECIALLY
DEWPOINT OBSERVATIONS.

SCZ027-030-031-034>040-042>050-272300-
...SOUTHEAST SOUTH CAROLINA...

CITY           SKY/WX    TMP DP  RH WIND       PRES   REMARKS
N CHARLESTON   CLOUDY    48  34  58 SE9       30.36R
WATERFRONT PRK NOT AVBL
MOUNT PLEASANT FAIR      46  36  66 CALM      30.36S
PINOPOLIS        N/A     52  34  50 CALM      30.27S
MONCKS CORNER  FAIR      52  34  50 NE5       30.35R
SUMMERVILLE    FAIR      50  34  53 NE3       30.36S
BEAUFORT MCAS  CLOUDY    48  36  63 SE10      30.35R
BEAUFORT ARPT  FAIR      46  37  71 CALM      30.35R
HILTON HEAD IS PTSUNNY   46  36  66 NE6       30.36S
WALTERBORO     CLOUDY    52  36  54 NE6       30.35S
ALLENDALE      FAIR      55  34  44 CALM      30.33R

...SOUTHERN MIDLANDS AND PEE DEE...

CITY           SKY/WX    TMP DP  RH WIND       PRES   REMARKS
GEORGETOWN     NOT AVBL
KINGSTREE      NOT AVBL
ORANGEBURG     SUNNY     53  32  44 SE3       30.34R
BARNWELL       FAIR      55  36  47 E7        30.34R
AIKEN          FAIR      55  34  44 N6        30.36R
MANNING        FAIR      54  32  43 CALM      30.35R
COLUMBIA       MOSUNNY   55  30  38 W5        30.34R
SUMTER         SUNNY     53  32  44 E6        30.33R
FLORENCE       SUNNY     54  29  38 NE7       30.36R
MYRTLE BEACH   SUNNY     46  34  61 S9        30.38S
N MYRTLE BEACH PTSUNNY   47  35  63 S7        30.36R

$$

GAZ063-065-086>088-099>101-113>116-118-119-134>141-150-272300-
...SOUTHEAST GEORGIA...

CITY           SKY/WX    TMP DP  RH WIND       PRES   REMARKS
SAVANNAH ARPT  CLOUDY    51  34  52 E6        30.34S
HUNTER AAF     CLOUDY    49  36  60 E8        30.32S
FORT STEWART   CLOUDY    51  35  54 E6        30.31S
STATESBORO     PTSUNNY   53  37  55 E6        30.33R
SYLVANIA       PTCLDY    53  40  60 E5        30.34S
CLAXTON        FAIR      52  37  58 E7        30.33S

...CSRA...CENTRAL AND FAR SOUTHEAST GEORGIA...

CITY           SKY/WX    TMP DP  RH WIND       PRES   REMARKS
THOMSON        SUNNY     57  38  49 CALM      30.36S
AUGUSTA-BUSH   SUNNY     57  32  38 N6        30.33R
AUGUSTA-DANIEL SUNNY     57  31  37 CALM      30.33R
SWAINSBORO     FAIR      59  25  27 NE3       30.32S
VIDALIA        MOSUNNY   54  37  54 E5        30.32S
EASTMAN        FAIR      57  38  48 NE7       30.33S
HAZLEHURST     FAIR      55  40  58 N7        30.30S
ALMA           CLOUDY    52  36  54 NE6       30.31S
WAYCROSS       CLOUDY    55  40  56 NE6       30.31S
JESUP          FAIR      54  39  58 NE6       30.32S
BAXLEY         FAIR      54  37  54 E8        30.31S
BRUNSWICK      CLOUDY    50  32  50 NE12G17   30.34S
SAINT SIMONS   CLOUDY    48  36  63 N14       30.33R

$$

SCZ027-028-034-036>038-045-046-048>050-GAZ119-141-272300-
...LAKE AND SUPPLEMENTAL COASTAL OBSERVATIONS...

STATION/POSITION TIME  TEMP    WIND        PRES    WAVE   SWELL
                       AIR SEA DIR/SP/G            HT/PER HT/PER/DIR
                 (UTC) (F)     (DEG/KT/KT) (MB)    (FT/S) (FT/S/D)
UPR LAKE MARION  NOT AVBL
WINYAH BAY       NOT AVBL
LAKE MURRAY      2100   53     190/  3/  5 1026.8R
ACE BASIN NERRS  NOT AVBL
FORT PULASKI     2106   47 49   60/ 13/ 15 1028.1R
SAPELO ISLAND    2100   48      40/ 12     1027.0S

$$

ANZ835-935-AMZ111-154-330-350-352-354-370-450-454-472-272300-
...C-MAN AND BUOY OBSERVATIONS...

STATION/POSITION TIME  TEMP    WIND        PRES    WAVE   SWELL
                       AIR SEA DIR/SP/G            HT/PER HT/PER/DIR
                 (UTC) (F)     (DEG/KT/KT) (MB)    (FT/S) (FT/S/D)
BUOY 41004       2150   50 66   30/ 17/ 21 1026.9R   5/ 5   3/11
BUOY 41008       2150   49 52   30/ 21/ 23 1026.2R   5/ 5   2/ 80/11
FOLLY BEACH CMAN 2200   46      70/ 13/ 15 1028.3S
CAPERS NEARSHORE NOT AVBL
FRIPP NEARSHORE  2100   47      80/ 16/ 19 1026.6R


STATION/POSITION TIME  TEMP    WIND        PRES    WAVE   SWELL
                       AIR SEA DIR/SP/G            HT/PER HT/PER/DIR
                 (UTC) (F)     (DEG/KT/KT) (MB)    (FT/S) (FT/S/D)
5E ST. MARYS GA  2121      53                N/A     5/ 6   2/130/12
FRYING PAN BUOY  2150   47 62   40/ 14/ 17 1028.5F   5/ 5   3/100/ 7
BUOY 41025       NOT AVBL
CAPE LOOKOUT NC  2200   45      20/ 10/ 14 1028.6S
BUOY 41002       2150   63 70  360/ 17/ 23 1024.5R  10/11   8/11
BUOY 41010       2120   65 73   50/ 17/ 21 1021.7S
ST AUGUSTINE FL  2200   50     360/ 24/ 26 1025.7R


$$



USA.gov is the U.S. government's official web portal to all federal, state and local government web resources and services.